Regional Weather Roundup
Issued by NWS

Home | Current Version | Previous Version | Graphics & Text | Print | Product List | Glossary On
Versions: 1 2 3 4 5 6 7 8 9 10 11 12 13 14 15 16 17 18 19 20 21 22 23 24 25 26 27 28 29 30 31 32 33 34 35 36 37 38 39 40 41 42 43 44 45 46 47 48 49 50
000
ASUS45 KBOU 032307
RWRCO

WEATHER ROUNDUP FOR COLORADO
NATIONAL WEATHER SERVICE DENVER/BOULDER CO
500 PM MDT MON AUG 03 2015

NOTE: "FAIR" INDICATES FEW OR NO CLOUDS BELOW 12000 FEET WITH NO
SIGNIFICANT WEATHER AND/OR OBSTRUCTIONS TO VISIBILITY.

COZ001>005-013-030-031-040000-
...NORTHWEST COLORADO...

CITY           SKY/WX    TMP DP  RH WIND       PRES   REMARKS
CRAIG          PTSUNNY   75  57  53 VRB5      30.12F
HAYDEN         CLOUDY    64  52  63 N3        30.16R THUNDER
MEEKER         CLOUDY    72  52  49 NW14      30.13R
MOUNT WERNER   NOT AVBL
STEAMBOAT SPGS   N/A     61  52  73 NE20      30.17F
WALDEN         CLOUDY    70  39  32 S9        30.25R
$$

COZ006>008-011-040000-
...WEST CENTRAL VALLEYS...

CITY           SKY/WX    TMP DP  RH WIND       PRES   REMARKS
GRAND JUNCTION MOSUNNY   85  46  25 W15       30.03F
MONTROSE       PTSUNNY   84  50  30 SW17      30.13S
EAGLE          PTSUNNY   66  52  59 S13       30.20S
RIFLE          PTSUNNY   77  55  46 E10       30.10F
DELTA          NOT AVBL
NUCLA          NOT AVBL
$$

COZ017>023-064>068-040000-
...SOUTHWEST COLORADO...

CITY           SKY/WX    TMP DP  RH WIND       PRES   REMARKS
DURANGO        MOSUNNY   82  42  24 NW21      30.18F
CORTEZ         SUNNY     82  46  28 NW18G26   30.15F
PAGOSA SPRINGS MOSUNNY   74  47  37 NE8       30.26F
TELLURIDE      NOT AVBL
WOLF CREEK PAS NOT AVBL
$$

COZ009-010-012-014-032>034-037-058>063-040000-
...CENTRAL COLORADO...

CITY           SKY/WX    TMP DP  RH WIND       PRES   REMARKS
ASPEN          CLOUDY    61  51  70 N12G21    30.30R
BUENA VISTA    MOSUNNY   73  39  28 W12G17    30.24F
COPPER MTN     LGT RAIN  54  37  54 W31G45    30.55F
BERTHOUD PASS  FAIR      46  36  66 MISG      30.60F THUNDER
COTTONWOOD PAS PTSUNNY   68  41  37 CALM      30.39F
GUNNISON       PTSUNNY   66  46  48 NE12      30.29R
KREMMLING      CLOUDY    72  36  26 SW14      30.22S
LEADVILLE      PTSUNNY   60  41  49 NW9       30.38S
MONARCH PASS   PTSUNNY   54  37  54 W21G35    30.65F
SALIDA         MOSUNNY   78  39  24 CALM      30.27F
SUNLIGHT       CLOUDY    54  54 100 CALM      30.50R
WILKERSON PASS NOT AVBL
$$

COZ069>075-040000-
...SAN LUIS VALLEY/SANGRE DE CRISTO MOUNTAINS...

CITY           SKY/WX    TMP DP  RH WIND       PRES   REMARKS
ALAMOSA        PTSUNNY   71  49  45 NE5       30.23F
LA VETA PASS   PTSUNNY   59  43  55 MISG      30.43S
SAGUACHE       MOSUNNY   72  50  46 S5        30.25F
$$

COZ035-036-038>040-040000-
...NORTHERN COLORADO FRONT RANGE...

CITY           SKY/WX    TMP DP  RH WIND       PRES   REMARKS
DENVER INTL AP PTSUNNY   80  49  33 S15       30.08R
DMNS CITY PARK   N/A     74  51  44 SE3G14    30.07F
AURORA         PTSUNNY   76  51  40 W6        30.11R
FRONT RANGE AP PTSUNNY   79  43  27 S12G18    30.10F
ERIE MUNI ARPT CLOUDY    81  43  26 S14G23    30.06S
BOULDER MUN AP CLOUDY    81  43  26 S9        30.06F
CENTENNIAL     LGT RAIN  75  49  39 S8        30.11F
BROOMFIELD     NOT AVBL
FORT COLLINS   CLOUDY    84  39  20 E10       30.03F
LONGMONT       CLOUDY    84  46  25 SW3       30.06S
$$

COZ041-046-047-076>085-087-088-040000-
...PIKES PEAK/PALMER DIVIDE AND SOUTHERN FOOTHILLS...

CITY           SKY/WX    TMP DP  RH WIND       PRES   REMARKS
COLO. SPRINGS  PTSUNNY   73  50  44 E18       30.17R THUNDER
A. F. ACADEMY  PTSUNNY   72  49  44 SW7       30.18R
ELLICOTT       MOSUNNY  N/A N/A N/A E22G31    30.14F
FALCON         MOSUNNY   65  49  55 E15       30.22S
FORT CARSON    PTSUNNY   77  50  38 NE12      30.13R
LIMON          CLOUDY    66  59  78 SE12G18   30.13F
MONUMENT HILL  MOSUNNY   73  45  35 SE9G16    30.21S
TRINIDAD       MOSUNNY   83  52  34 NE8       30.06F
$$

COZ042>045-048>051-090-091-040000-
...NORTHEAST COLORADO...

CITY           SKY/WX    TMP DP  RH WIND       PRES   REMARKS
GREELEY ARPT   CLOUDY    81  46  30 SE9       30.03F
AKRON          CLOUDY    83  49  30 SE12      30.03F
BURLINGTON     CLOUDY    82  58  43 E6        30.03S
WRAY           CLOUDY    89  50  25 SE10      29.98F
STERLING       CLOUDY    88  55  33 S9        29.97F
HOLYOKE        CLOUDY    88  61  40 SE7       29.98F
FORT MORGAN    CLOUDY    82  44  25 SE7       30.02F
$$

COZ086-089-092>099-040000-
...SOUTHEAST COLORADO...

CITY           SKY/WX    TMP DP  RH WIND       PRES   REMARKS
PUEBLO         LGT RAIN  84  56  38 NE20      30.02R
LA JUNTA       MOSUNNY   81  58  45 E20G25    30.00S
LAMAR          PTSUNNY   73  65  75 NE6       29.97F
SPRINGFIELD      N/A     72  62  71 E22       30.01F
$$



USA.gov is the U.S. government's official web portal to all federal, state and local government web resources and services.